Location: Innerarity Island Observatory
(30.3139°N, 87.4867°W)
Time: 23:41:13
(UTC-05:00)

OPAL - Visible Passes

Search period start: 25 May 2016 00:00
Search period end: 04 June 2016 00:00
Orbit: 744 x 795 km, 100.2° (Epoch: 25 May)

Date Brightness Start Highest point End Pass type
(mag) Time Alt. Az. Time Alt. Az. Time Alt. Az.
25 May 9.8 01:07:07 10° NE 01:08:43 19° NE 01:08:43 19° NE visible
25 May 9.4 02:46:29 10° NNW 02:49:00 20° NW 02:49:00 20° NW visible
26 May 9.1 02:10:14 10° N 02:13:08 31° NNW 02:13:08 31° NNW visible
27 May 9.3 01:34:45 10° NNE 01:37:15 29° NNE 01:37:15 29° NNE visible
27 May 9.8 03:16:15 10° NW 03:17:33 12° NW 03:17:33 12° NW visible
28 May 9.9 01:00:02 10° NE 01:01:23 16° NE 01:01:23 16° NE visible
28 May 9.2 02:38:48 10° NNW 02:41:40 24° NW 02:41:40 24° NW visible
29 May 8.9 02:02:47 10° N 02:05:48 35° N 02:05:48 35° N visible
30 May 9.4 01:27:29 10° NNE 01:29:55 27° NE 01:29:55 27° NE visible
30 May 9.6 03:08:01 10° NNW 03:10:12 15° NW 03:10:12 15° NW visible
31 May 10.1 00:53:04 10° NE 00:54:01 14° NE 00:54:01 14° NE visible
31 May 9.0 02:31:11 10° N 02:34:19 29° NW 02:34:19 29° NW visible
01 Jun 8.9 01:55:23 10° NNE 01:58:26 36° N 01:58:26 36° N visible
02 Jun 9.5 01:20:16 10° NNE 01:22:32 24° NE 01:22:32 24° NE visible
02 Jun 9.4 03:00:05 10° NNW 03:02:50 18° NW 03:02:50 18° NW visible
03 Jun 10.2 00:46:14 10° NE 00:46:39 11° ENE 00:46:39 11° ENE visible
03 Jun 8.8 02:23:38 10° N 02:26:56 33° NNW 02:26:56 33° NNW visible
